Hourly Data Report for May 22, 2012

All times are specified in Local Standard Time (LST). Add 1 hour to adjust for Daylight Saving Time where and when it is observed.

LONDON A
ONTARIO

43°01'59.000" N
81°09'04.000" W
278.00 m
6144473
71623
YXU

Download Data

Hourly Data (May 2012)
Hourly Data Report for May 22, 2012
Temp Definition
°C
Dew Point Temp Definition
°C
Rel Hum Definition
%
Wind Dir Definition
10's deg

Wind Spd Definition
km/h
Visibility Definition
km
Stn Press Definition
kPa
Hmdx Definition


Wind Chill Definition


Weather Definition


TIME
00:00 Legend Double Dagger 11.7 9.1 84 32 17 10.0 98.20     LegendNANA
01:00 Legend Double Dagger 10.8 8.6 86 35 15 10.0 98.13     Clear
02:00 Legend Double Dagger 10.8 8.7 87 33 12 10.0 98.12     LegendNANA
03:00 Legend Double Dagger 11.6 9.2 85 32 12 10.0 98.11     LegendNANA
04:00 Legend Double Dagger 11.4 9.5 88 29 14 10.0 98.15     Cloudy
05:00 Legend Double Dagger 11.0 9.3 89 31 13 10.0 98.16     LegendNANA
06:00 Legend Double Dagger 11.1 10.2 94 34 15 10.0 98.15     Rain Showers
07:00 Legend Double Dagger 11.8 11.0 95 32 12 10.0 98.13     Rain Showers
08:00 Legend Double Dagger 13.0 11.6 91 34 17 10.0 98.15     LegendNANA
09:00 Legend Double Dagger 13.8 11.7 87 36 18 10.0 98.17     LegendNANA
10:00 Legend Double Dagger 15.8 12.8 82 33 15 10.0 98.16     Mostly Cloudy
11:00 Legend Double Dagger 17.5 14.1 80 33 11 10.0 98.13     LegendNANA
12:00 Legend Double Dagger 18.4 14.0 75 29 13 10.0 98.11     LegendNANA
13:00 Legend Double Dagger 19.9 14.4 70 32 9 10.0 98.07     Mainly Clear
14:00 Legend Double Dagger 20.4 14.4 68 28 17 10.0 98.04     LegendNANA
15:00 Legend Double Dagger 20.0 13.6 66 28 17 10.0 98.01     LegendNANA
16:00 Legend Double Dagger 17.9 12.2 69 31 16 10.0 98.02     Mostly Cloudy
17:00 Legend Double Dagger 17.2 11.5 69 32 21 10.0 98.01     LegendNANA
18:00 Legend Double Dagger 16.7 11.3 70 30 13 10.0 97.99     LegendNANA
19:00 Legend Double Dagger 15.7 11.1 74 29 13 10.0 98.01     Mainly Clear
20:00 Legend Double Dagger 14.1 10.9 81 30 10 10.0 98.03     LegendNANA
21:00 Legend Double Dagger 12.3 9.9 85 32 11 10.0 98.06     LegendNANA
22:00 Legend Double Dagger 11.1 9.4 89 30 10 10.0 98.07     Mainly Clear
23:00 Legend Double Dagger 9.9 8.7 92 29 8 10.0 98.08     LegendNANA

Notes on Data Quality.

Legend

  • E = Estimated
  • M = Missing
  • NA = Not Available
  • ‡ = Partner data that is not subject to review by the National Climate Archives
Date modified: